EHI
0 0 0 0 0 0 0 0 0 0 0 0 0 0 0 0 0 0 0 0 0 0 0 0 0 0 0 0 0 0 0 0 0 0 0 0 0 0 0 0 0 0 0 0
0 0 0 0 0 0 0 0 0 0 0 0 0 0 0 0 0 0 0 0 0 0 0 0 0 0 0 0 0 0 0 0 0 0 0 0 0 0 0 0 0 0 0 0
0 0 0 0 0 0 0 0 0 0 0 0 0 0 0 0 0 0 0 0 0 0 0 0 0 0 0 0 0 0 0 0 0 0 0 0 0 0 0 0 0 0 0 0
0 0 0 0 0 0 0 0 0 0 0 0 0 0 0 0 0 0 0 0 0 0 0 0 0 0 0 0 0 0 0 0 0 0 0 0 0 0 0 0 0 0 0 0
0 0 0 0 0 0 0 0 0 0 0 0 0 0 0 0 0 0 0 0 0 0 0 0 0 0 0 0 0 0 0 0 0 0 0 0 0 0 0 0 0 0 0 0
0 0 0 0 0 0 0 0 0 0 0 0 0 0 0 0 0 0 0 0 0 0 0 0 0 0 0 0 0 0 0 0 0 0 0 0 0 0 0 0 0 0 0 0
0 0 0 0 0 0 0 0 0 0 0 0 0 0 0 0 0 0 0 0 0 0 0 0 0 0 0 0 0 0 0 0 0 0 0 0 0 0 0 0 0 0 0 0
0 0 0 0 0 0 0 0 0 0 0 0 0 0 0 0 0 0 0 0 0 0 0 0 0 0 0 0 0 0 0 0 0 0 0 0 0 0 0 0 0 0 0 0
0 0 0 0 0 0 0 0 0 0 0 0 0 0 0 0 0 0 0 0 0 0 0 0 0 0 0 0 0 0 0 0 0 0 0 0 0 0 0 0 0 0 0 0
0 0 0 0 0 0 0 0 0 0 0 0 0 0 0 0 0 0 0 0 0 0 0 0 0 0 0 0 0 0 0 0 0 0 0 0 0 0 0 0 0 0 0 0
0 0 0 0 0 0 0 0 0 0 0 0 0 0 0 0 0 0 0 0 0 0 0 0 0 0 0 0 0 0 0 0 0 0 0 0 0 0 0 0 0 0 0 0
0 0 0 0 0 0 0 0 0 0 0 0 0 0 0 0 0 0 0 0 0 0 0 0 0 0 0 0 0 0 0 0 0 0 0 0 0 0 0 0 0 0 0 0
0 0 0 0 0 0 0 0 0 0 0 0 0 0 0 0 0 0 0 0 0 0 0 0 0 0 0 0 0 0 0 0 0 0 0 0 0 0 0 0 0 0 0 0
0 0 0 0 0 0 0 0 0 0 0 0 0 0 0 0 0 0 0 0 0 0 0 0 0 0 0 0 0 0 0 0 0 0 0 0 0 0 0 0 0 0 0 0
0 0 0 0 0 0 0 0 0 0 0 0 0 0 0 0 0 0 0 0 0 0 0 0 0 0 0 0 0 0 0 0 0 0 0 0 0 0 0 0 0 0 0 0
0 0 0 0 0 0 0 0 0 0 0 0 0 0 0 0 0 0 0 0 0 0 0 0 0 0 0 0 0 0 0 0 0 0 0 0 0 0 0 0 0 0 0 0
0 0 0 0 0 0 0 0 0 0 0 0 0 0 0 0 0 0 0 0 0 0 0 0 0 0 0 0 0 0 0 0 0 0 0 0 0 0 0 0 0 0 0 0
0 0 0 0 0 0 0 0 0 0 0 0 0 0 0 0 0 0 0 0 0 0 0 0 0 0 0 0 0 0 0 0 0 0 0 0 0 0 0 0 0 0 0 0
0 0 0 0 0 0 0 0 0 0 0 0 0 0 0 0 0 0 0 0 0 0 0 0 0 0 0 0 0 0 0 0 0 0 0 0 0 0 0 0 0 0 0 0
0 0 0 0 0 0 0 0 0 0 0 0 0 0 0 0 0 0 0 0 0 0 0 0 0 0 0 0 0 0 0 0 0 0 0 0 0 0 0 0 0 0 0 0
0 0 0 0 0 0 0 0 0 0 0 0 0 0 0 0 0 0 0 0 0 0 0 0 0 0 0 0 0 0 0 0 0 0 0 0 0 0 0 0 0 0 0 0
0 0 0 0 0 0 0 0 0 0 0 0 0 0 0 0 0 0 0 0 0 0 0 0 0 0 0 0 0 0 0 0 0 0 0 0 0 0 0 0 0 0 0 0
0 0 0 0 0 0 0 0 0 0 0 0 0 0 0 0 0 0 0 0 0 0 0 0 0 0 0 0 0 0 0 0 0 0 0 0 0 0 0 0 0 0 0 0
0 0 0 0 0 0 0 0 0 0 0 0 0 0 0 0 0 0 0 0 0 0 0 0 0 0 0 0 0 0 0 0 0 0 0 0 0 0 0 0 0 0 0 0
0 0 0 0 0 0 0 0 0 0 0 0 0 0 0 0 0 0 0 0 0 0 0 0 0 0 0 0 0 0 0 0 0 0 0 0 0 0 0 0 0 0 0 0
0 0 0 0 0 0 0 0 0 0 0 0 0 0 0 0 0 0 0 0 0 0 0 0 0 0 0 0 0 0 0 0 0 0 0 0 0 0 0 0 0 0 0 0
Wind_Speed
1 3 3 6 6 4 3 3 5 6 3 2 7 10 12 7 5 6 6 6 6 6 5 3 4 4 3 3 3 3 2 2 2 1 1 1 1 1 1 1 2 2 1 1
3 3 6 3 3 2 3 4 5 5 2 3 6 11 10 7 7 7 7 7 6 5 3 3 3 3 4 4 4 3 3 3 3 3 2 1 1 1 1 1 1 2 2 1
5 4 2 3 2 3 5 5 5 4 4 3 3 8 6 5 4 4 4 4 4 5 5 4 4 4 4 4 4 4 4 3 3 2 1 1 1 1 0 1 1 1 1 2
3 3 2 2 4 4 6 4 4 3 1 4 0 6 7 4 4 5 5 4 5 4 4 4 4 4 5 5 4 4 4 3 3 3 2 3 2 2 2 1 1 2 2 2
3 2 2 4 4 4 5 2 2 2 2 3 2 4 10 3 5 6 6 6 6 5 5 5 5 5 5 4 4 4 3 3 2 3 3 3 2 2 1 1 1 2 2 2
3 2 2 3 2 3 1 2 2 2 2 4 5 5 9 5 6 5 5 5 5 5 5 4 3 3 3 3 3 3 3 3 3 3 3 3 3 3 2 1 2 2 2 2
3 3 2 1 1 1 2 3 3 4 2 6 3 4 11 7 6 6 6 5 5 4 4 4 4 3 3 3 3 3 4 3 3 3 3 3 4 4 4 3 3 3 2 2
2 4 3 2 4 4 3 5 5 4 5 5 2 7 9 5 4 3 3 3 3 3 3 4 5 5 4 4 4 4 4 4 3 3 3 3 3 2 3 3 3 3 3 2
4 4 2 1 1 5 3 3 4 3 1 4 6 7 9 2 2 2 1 1 3 4 4 4 4 4 5 4 4 4 5 4 4 3 3 2 2 2 3 2 2 2 2 2
4 3 3 2 1 0 3 4 3 3 3 5 6 6 6 4 5 4 3 3 4 3 3 3 4 4 5 5 4 3 4 5 4 4 4 3 3 3 3 2 2 2 2 2
3 3 3 1 4 5 3 3 3 3 4 4 5 8 5 6 5 5 5 4 4 4 4 4 4 4 4 3 4 4 4 4 3 4 3 3 3 2 2 2 3 2 2 2
3 3 3 5 4 3 5 6 6 4 5 4 4 9 4 3 3 3 4 4 4 4 4 3 3 3 3 3 3 3 4 3 4 4 3 3 3 2 2 3 3 2 2 2
4 3 0 3 3 1 2 4 5 3 2 4 5 10 3 2 3 3 3 4 4 4 3 3 2 3 3 3 3 3 4 4 3 3 3 3 3 3 3 3 3 3 3 2
3 4 6 8 6 4 5 5 5 5 5 6 10 11 8 6 6 6 5 6 6 5 4 3 3 3 4 4 4 4 3 3 3 3 4 4 4 4 4 4 3 3 3 2
3 4 6 7 6 5 7 9 9 11 10 10 11 11 13 9 8 7 6 6 6 5 4 5 4 4 4 3 3 3 3 3 3 4 4 5 4 4 3 3 3 3 3 3
2 3 3 5 6 7 10 12 12 12 11 13 13 15 11 8 6 6 7 6 7 6 6 5 4 4 4 4 4 3 4 3 3 4 5 4 4 3 3 3 3 3 3 2
3 4 3 5 3 3 10 11 11 9 9 9 14 14 7 6 7 8 8 7 7 6 6 5 5 5 5 5 4 4 4 3 3 4 4 4 4 4 4 3 3 3 3 2
5 4 3 3 1 9 8 3 7 8 9 10 9 8 6 8 8 8 6 6 7 6 5 5 5 5 4 4 4 3 3 3 3 3 3 3 3 4 3 3 3 3 3 3
6 6 3 3 4 9 7 4 4 6 8 7 9 10 8 5 4 5 5 5 6 6 6 5 4 4 4 4 4 3 3 3 3 4 4 4 4 4 3 4 3 3 2 2
2 4 4 4 5 8 6 3 1 2 7 5 5 7 5 1 2 6 4 4 4 4 3 2 2 2 3 3 3 4 4 3 4 4 4 4 4 4 4 4 3 2 2 2
3 4 6 6 7 10 6 2 3 3 7 3 4 5 4 5 6 5 4 4 3 3 3 2 2 2 3 3 3 3 3 4 4 3 3 3 3 4 3 3 2 2 2 2
9 7 7 6 7 11 4 5 7 8 3 2 3 3 4 5 5 4 4 4 4 3 3 2 2 2 2 2 3 3 4 4 2 2 2 3 3 3 2 2 2 2 2 2
9 10 7 10 10 5 6 7 5 3 3 4 4 4 4 4 5 4 4 4 4 3 3 2 2 2 2 2 3 4 4 3 2 2 3 3 2 2 2 2 2 2 2 2
5 4 4 6 9 7 6 6 5 5 5 5 4 4 4 5 5 4 4 4 3 3 3 2 2 2 2 2 3 4 3 3 3 3 3 2 2 2 2 2 2 2 2 3
7 7 5 8 7 5 6 7 7 6 5 4 4 4 4 4 4 4 4 4 4 3 3 2 2 3 3 3 3 3 3 3 3 3 3 2 2 2 2 2 2 3 3 4
7 9 9 10 8 7 7 6 6 5 6 5 4 4 3 4 5 4 4 4 3 3 2 2 2 3 3 3 3 3 3 3 3 3 2 2 2 2 2 1 1 3 3 4
Wind_Direction
80 92 200 213 204 204 190 205 250 259 257 253 248 262 270 268 252 245 241 234 226 229 231 209 194 184 172 171 172 179 170 178 166 160 170 179 222 248 252 237 220 213 211 196
53 242 235 218 212 219 222 246 265 285 295 260 267 273 271 259 241 227 225 227 224 229 238 217 199 183 181 187 189 184 185 188 190 191 192 196 192 224 236 253 233 217 207 207
188 233 221 193 221 234 240 226 238 259 320 320 307 297 273 269 248 239 229 215 212 208 211 208 200 196 192 199 202 199 201 200 202 188 150 90 67 32 333 293 258 249 230 222
233 249 230 222 234 212 251 230 230 250 308 287 237 286 282 263 269 248 240 223 218 218 209 204 198 199 204 211 208 202 199 200 200 179 169 171 185 215 233 244 252 267 248 237
241 221 204 224 233 205 232 260 245 231 204 280 242 237 280 270 260 252 242 233 226 218 212 209 201 201 207 211 206 201 194 195 193 183 184 186 204 221 239 251 260 259 262 251
250 252 222 221 232 195 182 26 24 49 91 269 226 200 272 239 230 248 244 239 234 228 225 219 207 193 203 206 204 196 189 198 193 186 186 193 204 203 202 227 243 254 263 263
310 281 258 179 125 33 93 86 17 350 337 254 216 209 251 246 234 229 235 241 241 225 213 213 210 205 204 200 202 200 193 201 198 193 199 204 209 204 206 216 225 236 246 261
218 273 240 202 185 183 185 155 169 215 238 276 270 236 254 259 259 254 246 242 240 223 211 215 213 204 205 210 205 202 202 205 199 200 212 212 214 216 227 225 228 233 234 240
190 250 291 224 200 151 154 195 179 156 247 274 267 276 295 267 294 298 294 266 244 233 219 219 218 211 208 208 207 202 204 207 204 207 215 212 212 217 228 227 231 241 241 241
169 234 265 286 73 222 165 156 124 154 206 257 276 260 250 267 276 285 278 260 258 256 244 231 219 216 217 210 204 198 203 203 201 202 212 219 217 222 224 216 227 244 248 242
159 188 278 272 201 200 169 169 171 179 189 197 265 267 230 225 239 241 250 253 249 240 239 236 232 222 217 202 193 197 205 205 200 202 208 214 220 220 222 222 229 239 244 235
171 159 232 244 251 223 192 189 170 187 229 207 230 267 265 241 253 244 261 275 269 249 242 233 224 213 202 196 202 204 207 205 207 204 205 214 220 219 225 234 235 240 240 234
156 152 220 323 306 284 227 209 191 181 181 205 221 262 288 316 304 289 276 281 280 260 247 237 224 215 208 207 210 209 210 210 212 203 208 220 227 226 232 239 244 242 236 235
153 183 200 216 222 191 227 233 210 186 211 231 233 255 282 291 291 291 283 275 276 261 246 236 230 225 219 213 210 210 218 208 208 206 209 221 227 226 231 237 239 239 225 222
154 215 233 253 258 234 234 235 219 215 218 227 248 252 262 268 266 271 272 273 273 262 252 239 230 226 224 220 217 214 220 218 213 211 216 225 228 225 230 234 240 242 229 227
176 212 236 266 254 245 255 246 231 230 231 239 257 266 263 274 273 273 273 265 259 254 251 250 240 229 224 217 216 217 223 222 214 217 223 226 224 222 227 232 241 236 231 231
189 184 210 256 272 283 258 233 218 221 217 212 236 251 272 280 273 266 264 256 254 253 250 245 239 233 225 215 207 212 217 216 217 225 226 223 217 218 223 228 232 226 223 223
182 183 197 250 257 239 245 218 208 221 235 225 241 262 262 259 269 268 255 246 254 252 252 246 235 236 228 211 211 209 204 206 216 222 224 220 214 221 224 219 223 227 222 221
193 180 187 202 241 270 283 252 197 206 251 230 238 258 269 278 303 290 264 245 245 253 252 244 232 233 218 212 207 195 202 207 214 220 221 221 217 221 218 219 225 226 224 232
160 175 187 200 223 244 254 256 218 136 269 254 226 249 264 277 289 276 288 287 278 276 262 249 239 233 213 215 189 184 198 203 218 221 220 216 210 209 214 219 226 227 225 230
165 190 206 213 236 260 254 227 112 172 252 257 221 234 223 215 230 260 295 297 287 283 278 252 225 223 220 206 178 189 203 219 224 216 211 213 211 212 211 211 211 215 223 226
181 184 199 190 222 252 210 147 188 224 249 243 236 229 231 239 256 268 284 293 302 299 289 262 236 238 229 191 178 196 224 231 213 199 207 220 217 214 203 195 207 209 206 212
201 195 192 199 218 233 185 201 224 222 242 251 241 243 235 244 258 269 279 285 287 283 271 258 225 231 245 210 191 208 234 223 201 198 213 224 223 221 206 198 205 209 201 206
233 196 198 238 252 250 238 242 253 245 242 251 249 246 234 241 249 263 276 285 289 284 270 259 213 216 246 240 221 222 227 207 193 204 218 221 212 219 209 201 205 208 210 214
213 184 207 241 259 275 253 235 240 248 249 255 261 244 231 231 248 255 268 274 277 281 274 243 217 224 243 248 244 236 215 194 202 211 215 215 213 212 205 213 223 225 227 220
197 188 197 230 224 213 241 235 225 232 243 241 239 254 247 226 243 256 265 271 272 271 269 261 244 240 250 249 249 246 219 196 198 209 212 209 207 205 203 214 268 269 249 246